Flag for Switzerland Weather past 2 weeks in Zürich, Zurich, Switzerland

Now
70 °F

Mild.


Feels Like: 74 °F
Forecast: 55 / 71 °F
Wind: 1 mph from Southeast

Location: Zurich Town / Ville.

Current Time: Sep 1, 2015 at 10:07:07 AM

Latest Report: Sep 1, 2015 at 9:00 AM


Visibility: N/A

Pressure: 29.81 "Hg

Humidity: 68%

Dew point: 59 °F

Location of ZürichLocation

Historic Weather in Zürich — Graph

°F

Zürich temperature yesterday

Maximum temperature yesterday: 87 °F (at 5:00 PM)
Minimum temperature yesterday: 67 °F (at 7:00 AM)
Average temperature yesterday: 76 °F

Past Weeks' High & Low Weather Summary

 TemperatureHumidityPressure
High89 °F (Aug 30, 4:00 PM)98% (Aug 24, 2:00 AM)30.26 "Hg (Aug 24, 2:00 AM)
Low52 °F (Aug 20, 7:00 AM)23% (Aug 30, 3:00 PM)29.70 "Hg (Aug 24, 2:00 PM)
Average67 °F68%30.01 "Hg
* Reported Aug 17 8:00 AM — Sep 1 8:00 AM, Zürich, Weather by CustomWeather, © 2015

Note: Actual official high and low records may vary slightly from our data, if they occured in-between our weather recording intervals... More about our weather records

Advertising

Zürich weather history for previous 24 hours

 ConditionsComfort  
Time TempWeatherWind HumidityBarometerVisibility
8:00 AM
Tue, Sep 1
67 °FMild.1 mph74%29.84 "HgN/A
7:00 AM66 °FMild.1 mph72%29.85 "HgN/A
6:00 AM67 °FMild.1 mph74%29.86 "HgN/A
4:00 AM69 °FMild.2 mph71%29.88 "HgN/A
3:00 AM69 °FMild.1 mph66%29.89 "HgN/A
2:00 AM70 °FMild.1 mph64%29.90 "HgN/A
1:00 AM72 °FMild.3 mph58%29.89 "HgN/A
12:00 AM72 °FMild.1 mph61%29.88 "HgN/A
10:00 PM
Mon, Aug 31
77 °FMild.5 mph51%29.88 "HgN/A
9:00 PM79 °FWarm.7 mph43%29.87 "HgN/A
8:00 PM81 °FPleasantly warm.7 mph37%29.86 "HgN/A
7:00 PM84 °FPleasantly warm.9 mph33%29.85 "HgN/A
6:00 PM86 °FPleasantly warm.10 mph32%29.85 "HgN/A
5:00 PM87 °FPleasantly warm.8 mph35%29.86 "HgN/A
4:00 PM86 °FPleasantly warm.8 mph38%29.88 "HgN/A
3:00 PM85 °FPleasantly warm.6 mph39%29.90 "HgN/A
2:00 PM84 °FPassing clouds.6 mph38%29.92 "HgN/A
1:00 PM83 °FPleasantly warm.3 mph35%29.94 "HgN/A
12:00 PM80 °FWarm.3 mph46%29.96 "HgN/A
11:00 AM76 °FMild.3 mph48%30.00 "HgN/A
10:00 AM73 °FMild.2 mph56%30.01 "HgN/A
Weather by CustomWeather, © 2015

See weather overviewHow to use our weather pages